Temperature
17 17 17 17 17 18 18 18 18 18 18 18 18 18 18 18 18 18 18 18 18 18 18 18 18 18 18 18 18 18 18 18 18 18 18 18 18 18 18 18 18 18 18
18 18 17 17 18 18 18 18 18 18 18 17 17 18 18 18 18 18 18 18 18 18 18 18 18 18 18 18 18 18 18 18 18 18 18 18 18 18 18 18 18 18 18
18 18 18 17 18 18 18 17 18 18 17 17 17 17 17 17 17 18 18 18 18 18 18 18 18 18 18 18 18 18 18 18 18 18 18 18 18 18 18 18 18 18 18
18 18 18 17 17 17 17 17 17 17 17 17 17 17 17 17 17 18 18 18 18 18 17 17 18 18 18 18 18 18 18 18 18 18 18 17 17 17 18 18 18 18 18
18 18 18 18 17 17 17 17 17 17 17 17 17 17 17 17 17 17 17 17 17 17 17 17 17 17 17 17 17 17 17 18 17 17 17 17 17 17 17 17 17 17 17
18 18 17 17 17 17 17 17 17 17 17 17 17 17 17 17 17 17 17 17 17 17 17 17 17 17 17 17 17 17 17 17 17 17 17 17 17 17 17 17 17 17 17
18 17 17 17 17 17 17 17 17 17 17 17 17 17 17 17 17 17 17 17 17 17 17 17 17 17 17 17 17 17 17 17 17 17 17 17 17 17 17 17 17 17 17
18 17 17 17 17 17 17 17 17 17 17 17 17 17 17 17 17 17 17 17 17 17 17 17 17 17 17 17 17 17 17 17 17 17 17 17 17 17 17 17 17 17 17
18 18 17 17 17 17 17 17 17 17 17 17 17 17 17 17 17 16 17 17 17 16 16 16 16 16 16 16 16 16 16 17 17 17 17 17 17 17 17 17 17 17 17
18 18 17 17 17 17 17 17 17 17 17 16 16 17 16 16 16 16 16 16 16 16 16 16 16 16 16 16 16 16 16 16 16 16 16 16 16 16 16 16 16 16 16
18 17 17 17 17 17 17 16 16 16 16 16 16 16 16 16 16 16 16 16 16 16 16 16 16 16 16 16 16 16 16 16 16 16 16 16 16 16 16 16 16 16 16
18 18 17 17 17 17 17 16 16 16 16 16 16 16 16 16 16 16 16 16 15 15 16 16 16 16 16 15 16 16 16 16 16 16 15 15 16 16 16 16 16 16 16
18 18 17 17 17 17 17 16 16 16 16 16 16 16 16 16 16 16 15 15 15 15 15 15 15 15 15 15 15 15 15 15 15 15 15 15 15 15 15 15 15 16 16
18 17 17 17 17 17 17 16 16 16 16 16 16 16 16 16 16 15 15 15 15 15 15 15 15 15 15 15 15 15 15 15 15 15 15 15 15 15 15 15 15 15 15
18 17 17 17 17 17 17 16 16 16 16 16 16 16 16 16 16 16 15 15 15 15 15 15 15 15 15 15 15 15 15 15 15 15 15 15 15 15 15 15 15 15 15
18 17 17 17 17 17 17 16 16 16 16 16 16 16 16 16 16 15 15 15 15 15 15 15 15 15 15 15 15 15 15 15 15 15 15 15 15 15 15 15 15 15 15
18 18 17 17 17 17 17 16 16 16 16 16 16 16 16 16 15 15 15 15 15 15 15 15 15 15 15 15 15 15 14 15 15 15 15 15 15 15 15 15 15 15 15
18 17 17 17 17 17 17 16 16 16 16 16 16 16 16 15 15 15 15 15 15 15 15 15 15 15 15 15 15 14 14 14 14 14 14 15 15 15 15 15 15 15 14
17 17 17 17 17 17 17 16 16 16 16 16 16 16 16 15 15 15 15 15 15 15 15 15 14 15 14 14 14 14 14 14 14 14 14 14 14 14 14 14 14 14 14
17 17 17 17 17 16 16 16 16 16 16 16 16 15 15 15 15 15 15 15 15 15 15 14 14 14 14 14 14 14 14 14 14 14 14 14 14 14 14 14 14 14 14
17 17 17 17 16 16 16 16 16 16 16 15 15 15 15 15 15 15 15 15 15 15 14 14 14 14 14 14 14 14 14 14 14 14 14 14 14 14 14 14 14 14 14
17 17 17 17 16 16 16 16 16 16 15 15 15 15 15 15 15 15 15 15 15 14 14 14 14 14 14 14 14 14 13 13 14 13 14 14 14 14 14 14 14 14 14
17 17 17 17 16 16 16 16 16 15 15 15 15 15 15 15 15 15 15 15 14 14 14 14 14 14 14 14 14 14 14 14 13 13 13 13 13 14 14 13 14 14 14
17 17 17 16 16 16 16 16 15 15 15 15 15 15 15 14 14 14 14 14 14 14 14 14 14 14 14 14 14 14 14 14 14 13 13 13 13 13 13 13 13 13 13
17 17 17 16 16 16 16 15 15 15 15 15 14 14 15 14 14 14 14 14 14 14 14 14 14 14 14 14 14 14 14 14 14 13 13 13 13 13 13 13 13 13 13
17 17 16 16 16 16 16 15 15 15 15 15 14 14 14 14 14 14 14 14 14 14 14 14 14 14 14 14 14 14 14 14 14 14 13 13 13 13 13 13 13 13 13
Wind_Speed
0 0 6 7 8 9 9 9 10 10 11 11 11 11 12 12 12 12 12 12 12 12 12 13 12 12 12 11 11 11 11 11 11 11 11 10 11 10 10 11 10 9 11
4 3 7 7 8 9 9 9 10 10 10 11 11 11 11 11 11 11 12 12 13 13 13 13 13 12 12 11 11 11 11 11 11 11 10 10 10 10 10 10 10 9 11
5 4 6 8 8 9 9 9 9 10 10 11 11 12 11 11 11 11 11 12 13 13 13 13 13 12 12 12 12 11 11 11 11 11 9 8 8 10 10 10 10 11 11
7 6 7 8 8 9 9 9 9 10 10 10 11 11 11 11 11 11 11 12 13 13 13 13 13 13 12 13 12 12 11 11 11 10 7 7 7 11 11 11 11 11 11
7 6 7 8 9 9 9 9 10 10 10 10 10 11 11 11 12 13 13 14 13 13 13 13 13 13 13 13 13 13 13 13 13 10 9 8 8 11 11 11 11 11 11
6 6 8 9 9 9 9 9 9 10 10 10 10 11 11 12 12 13 14 14 13 13 13 13 13 13 13 14 14 14 14 14 12 10 10 9 9 11 12 11 11 12 11
6 6 8 9 9 9 9 9 9 10 10 11 11 11 11 12 12 13 14 14 13 13 12 13 13 13 13 14 14 14 14 14 12 10 10 9 10 12 12 11 12 12 12
7 6 7 8 8 8 8 9 9 10 10 11 11 11 12 12 12 12 13 13 13 12 12 12 13 13 13 13 14 14 14 13 11 10 9 9 11 12 12 12 12 12 12
6 6 5 6 6 7 7 8 8 9 9 10 10 10 11 11 11 11 12 11 11 11 12 12 12 12 13 13 13 14 14 14 10 8 9 9 11 12 12 12 12 12 12
6 5 4 4 5 5 5 6 7 8 8 8 9 9 10 10 10 10 10 10 10 11 11 12 12 11 12 12 13 13 14 12 9 8 7 9 12 12 12 12 12 11 11
5 4 4 4 4 4 3 5 6 6 6 6 7 8 8 7 7 7 8 9 10 10 10 10 10 11 11 11 12 12 11 9 8 7 7 10 11 12 12 12 11 11 10
5 4 3 4 3 3 4 4 4 4 4 4 4 5 5 5 5 6 7 8 9 9 9 9 9 9 9 8 9 10 8 8 7 6 7 10 11 11 11 11 11 10 10
4 4 4 4 4 3 3 3 3 3 3 4 4 5 5 5 4 5 5 5 6 7 6 7 6 6 7 6 6 7 7 7 6 6 7 10 11 11 11 10 10 10 10
5 4 3 4 4 4 4 3 3 3 2 3 4 5 5 3 3 3 4 4 4 5 5 6 6 7 8 8 7 7 7 6 6 6 8 10 10 10 10 10 9 9 9
6 4 3 4 4 4 4 2 3 3 3 3 4 5 6 4 3 3 3 4 4 5 5 5 6 7 7 7 7 7 6 7 6 6 7 10 10 10 10 9 9 9 9
5 4 3 4 5 5 4 3 2 3 4 4 4 5 6 5 4 4 4 4 4 5 5 5 6 6 5 5 5 6 6 6 6 6 6 8 9 9 9 9 9 8 8
5 4 3 4 5 5 5 3 3 3 4 4 4 5 7 6 5 5 4 4 4 6 6 6 6 6 5 5 5 5 5 5 5 5 6 6 6 7 8 8 8 7 7
5 4 3 4 5 5 5 4 3 3 4 3 4 5 6 7 7 6 4 3 5 6 5 4 4 4 4 4 4 3 3 4 4 4 5 5 5 5 6 7 7 6 6
5 5 4 4 5 4 4 4 4 4 3 3 4 4 5 6 7 6 4 3 5 4 3 4 3 3 3 3 3 3 2 2 2 4 3 3 3 4 4 5 6 6 5
5 5 5 4 5 5 4 4 3 4 3 3 3 3 5 5 6 6 4 4 5 3 3 3 3 3 2 2 3 3 2 1 2 2 1 2 2 3 4 4 4 4 5
5 5 5 5 4 4 3 3 3 2 1 2 3 4 5 5 6 5 4 3 3 3 2 3 3 3 2 2 3 3 4 3 2 2 1 2 2 2 3 3 3 3 3
6 5 5 5 4 4 3 2 2 2 1 1 2 3 4 5 4 5 4 2 2 3 3 2 3 2 1 1 2 2 2 3 3 3 1 1 1 2 2 2 3 3 3
5 5 5 5 4 3 4 3 3 3 3 3 2 2 1 3 3 3 4 4 3 3 2 2 3 3 2 0 1 3 3 2 1 3 2 1 1 1 1 2 2 3 2
6 5 5 4 4 4 5 5 5 3 2 1 0 0 1 2 2 3 4 4 3 2 2 2 2 2 3 1 1 0 2 3 2 0 2 2 1 1 0 1 2 2 3
6 5 5 5 4 4 5 5 5 3 2 1 1 1 1 1 1 2 2 3 2 2 2 2 2 2 2 2 1 1 1 1 2 2 1 2 2 2 1 1 2 2 3
4 5 5 5 4 4 5 5 5 5 3 3 1 1 0 0 1 1 1 1 2 2 2 2 2 2 2 2 1 1 2 2 2 2 2 1 1 2 1 0 1 2 3
Wind_Direction
273 17 77 69 66 69 73 71 71 74 72 71 71 73 75 75 76 78 79 82 83 84 86 89 91 92 94 96 98 101 104 105 106 106 106 108 108 109 111 112 112 111 114
156 110 85 79 74 75 78 75 74 75 74 73 74 75 77 76 77 79 81 84 85 86 88 89 89 89 90 92 95 97 101 103 106 105 103 102 104 109 113 115 114 113 114
129 112 92 88 82 81 81 79 78 77 77 76 75 77 78 76 75 77 86 90 90 89 88 88 88 86 87 87 90 93 96 99 103 103 102 96 103 108 113 113 112 112 112
128 118 106 97 91 88 87 84 83 82 79 77 77 77 79 76 74 76 89 94 93 91 89 87 87 85 85 84 86 88 91 93 94 97 93 94 100 107 107 107 110 110 109
123 121 116 106 98 94 92 91 88 85 81 80 80 80 80 79 77 79 89 92 91 91 89 88 87 86 85 84 84 85 85 85 87 87 86 88 95 107 105 103 103 106 106
134 130 125 115 107 99 94 92 90 86 83 83 83 82 82 80 80 81 84 87 88 88 88 88 88 88 89 87 87 84 84 84 82 81 83 90 94 102 102 102 101 102 102
145 141 133 125 115 107 101 98 96 90 88 86 86 88 86 83 83 85 85 85 86 88 90 89 88 91 93 89 89 86 87 86 80 79 81 89 97 103 100 100 100 102 100
145 143 138 132 123 113 107 102 100 95 92 92 89 87 88 87 87 88 88 87 87 88 90 90 88 89 91 91 90 89 89 88 84 83 83 89 100 103 102 100 99 98 98
136 138 136 135 128 119 112 106 105 99 96 95 93 90 90 89 89 88 90 91 91 93 92 89 87 87 88 89 91 91 89 86 79 79 89 89 98 103 102 101 100 99 97
133 140 146 142 138 128 120 112 108 106 101 98 95 95 92 89 88 88 91 95 95 96 93 90 88 86 85 87 88 88 85 81 76 75 82 91 96 99 100 100 101 100 97
134 149 154 144 148 146 135 116 104 103 106 100 94 100 93 87 86 88 93 97 97 95 94 91 89 87 84 84 85 85 80 76 76 77 83 94 99 100 99 99 98 98 97
146 155 152 143 143 143 130 107 94 95 91 97 101 104 106 100 96 93 92 92 93 88 87 87 85 84 84 81 81 81 76 74 76 79 90 99 102 102 102 101 100 97 95
144 142 145 142 135 129 118 114 96 94 85 86 97 104 106 97 91 84 83 71 71 75 71 71 72 79 87 88 85 83 79 78 74 78 92 101 105 105 103 102 100 98 95
119 125 131 121 114 120 120 112 109 99 90 92 100 108 109 95 90 83 76 71 75 79 74 70 73 91 93 91 92 88 81 80 76 77 89 99 103 103 101 100 99 99 98
113 120 130 123 121 117 106 106 107 101 99 96 89 100 109 103 100 94 87 88 86 88 84 76 76 85 86 86 87 89 86 80 82 82 87 96 99 101 100 96 97 101 101
125 132 133 128 128 117 110 111 110 111 104 97 92 96 104 105 104 99 85 78 80 85 85 86 85 85 82 80 76 78 81 83 83 85 82 89 94 98 100 97 94 98 100
144 137 129 135 117 113 111 112 115 113 106 103 101 91 92 101 108 102 93 86 88 92 90 85 78 78 78 75 68 68 72 75 81 86 86 85 88 95 99 96 93 93 101
137 129 118 118 112 114 111 105 108 108 107 106 103 95 91 97 104 100 98 99 101 97 91 84 75 75 72 72 67 62 65 68 72 83 89 86 82 84 86 88 89 93 98
136 128 111 99 112 113 109 105 102 100 97 102 105 103 98 99 104 109 109 114 107 94 90 100 86 94 91 81 75 62 53 62 68 82 79 88 97 93 88 83 82 84 87
136 127 120 101 102 107 102 88 74 69 65 78 92 106 106 103 106 110 112 112 108 96 88 96 99 81 99 105 86 58 23 34 57 73 95 93 107 114 104 89 78 70 69
126 123 122 110 106 107 104 105 98 87 70 60 74 89 95 104 110 112 109 109 107 112 128 125 108 92 83 103 80 40 13 17 27 17 60 85 90 118 119 106 94 84 68
139 140 132 126 124 124 124 136 132 128 104 84 62 74 87 100 115 119 113 107 113 112 112 115 114 112 137 138 122 99 32 2 358 3 18 77 87 93 98 128 113 104 89
143 150 148 143 135 128 117 98 84 66 52 43 38 37 47 95 105 121 128 130 131 130 141 146 134 128 151 262 165 145 144 201 310 343 357 22 53 84 108 123 126 122 111
161 152 143 144 140 134 125 122 120 114 117 196 206 45 20 75 95 115 133 138 140 136 147 166 142 143 139 148 340 78 168 161 155 319 334 351 20 79 117 136 129 136 128
159 151 148 142 143 142 136 140 136 128 145 129 91 71 39 24 71 102 126 144 152 154 163 150 134 137 143 155 169 133 85 86 122 148 227 315 354 347 335 163 142 131 135
151 149 148 146 156 158 150 152 150 153 150 129 129 137 24 353 360 35 108 150 176 177 176 174 169 158 162 154 161 157 154 157 168 152 172 218 277 317 342 16 150 143 147
Height
1520 1519 1517 1516 1515 1513 1512 1511 1510 1509 1508 1507 1506 1505 1504 1503 1503 1502 1501 1501 1500 1500 1500 1500 1500 1501 1502 1503 1504 1504 1505 1506 1507 1507 1508 1510 1510 1511 1512 1512 1513 1514 1514
1520 1519 1518 1517 1515 1514 1513 1512 1511 1510 1509 1508 1507 1506 1505 1504 1503 1502 1502 1502 1502 1501 1501 1502 1502 1503 1503 1504 1504 1505 1506 1506 1507 1508 1509 1510 1511 1512 1512 1513 1514 1514 1515
1521 1520 1519 1517 1516 1515 1514 1513 1512 1511 1510 1509 1508 1507 1506 1505 1503 1501 1501 1502 1502 1503 1503 1503 1504 1504 1505 1505 1505 1505 1506 1507 1507 1508 1509 1510 1511 1512 1513 1514 1515 1515 1516
1521 1520 1519 1518 1517 1516 1515 1514 1513 1512 1511 1510 1509 1508 1507 1505 1502 1499 1498 1500 1503 1504 1505 1505 1505 1506 1506 1506 1506 1506 1507 1507 1507 1508 1509 1511 1512 1513 1514 1515 1515 1516 1517
1522 1521 1520 1519 1518 1517 1516 1515 1514 1513 1512 1512 1511 1510 1508 1507 1504 1500 1499 1501 1504 1505 1506 1506 1507 1507 1507 1507 1508 1508 1508 1507 1506 1507 1509 1511 1513 1514 1515 1516 1516 1517 1518
1523 1522 1521 1520 1519 1518 1517 1516 1516 1515 1514 1513 1512 1511 1510 1509 1507 1505 1504 1505 1506 1507 1507 1508 1508 1509 1509 1509 1509 1509 1509 1509 1508 1508 1510 1512 1513 1515 1516 1517 1518 1518 1519
1523 1523 1522 1521 1521 1520 1519 1518 1517 1516 1515 1515 1514 1513 1512 1511 1510 1509 1508 1508 1509 1509 1509 1509 1510 1510 1510 1511 1511 1511 1511 1511 1510 1510 1511 1514 1515 1516 1517 1518 1519 1519 1520
1524 1524 1523 1522 1522 1521 1520 1519 1519 1518 1517 1516 1516 1515 1514 1513 1512 1512 1511 1511 1511 1511 1511 1511 1511 1512 1512 1512 1513 1513 1513 1513 1513 1513 1514 1515 1517 1517 1518 1519 1520 1520 1521
1525 1525 1524 1524 1523 1522 1522 1521 1520 1519 1519 1518 1518 1517 1516 1515 1515 1514 1513 1513 1513 1512 1512 1512 1513 1513 1514 1514 1514 1514 1515 1515 1515 1515 1516 1517 1518 1519 1519 1520 1520 1521 1521
1526 1526 1525 1525 1524 1524 1523 1523 1522 1521 1521 1520 1519 1519 1518 1517 1517 1516 1515 1515 1515 1515 1514 1514 1514 1515 1515 1515 1516 1516 1516 1517 1517 1517 1518 1519 1519 1520 1520 1521 1521 1522 1522
1527 1527 1526 1526 1526 1525 1525 1524 1523 1523 1522 1522 1521 1521 1520 1519 1519 1518 1517 1517 1516 1516 1516 1516 1516 1516 1516 1517 1517 1518 1518 1518 1519 1519 1520 1521 1521 1521 1522 1522 1522 1523 1523
1527 1527 1527 1527 1527 1526 1526 1525 1525 1524 1524 1523 1523 1522 1522 1521 1521 1520 1519 1519 1518 1518 1517 1517 1516 1516 1517 1518 1519 1520 1520 1520 1521 1521 1522 1522 1522 1523 1523 1523 1523 1523 1524
1528 1528 1528 1528 1528 1527 1527 1527 1526 1526 1525 1525 1524 1524 1523 1523 1522 1522 1521 1521 1520 1520 1519 1518 1517 1517 1518 1519 1520 1521 1522 1522 1522 1523 1524 1524 1524 1524 1524 1524 1525 1525 1525
1528 1528 1529 1529 1528 1528 1528 1528 1527 1527 1526 1526 1526 1525 1525 1524 1524 1524 1523 1523 1522 1522 1521 1519 1518 1517 1519 1521 1522 1523 1523 1524 1524 1525 1525 1525 1525 1525 1525 1526 1526 1526 1526
1528 1529 1529 1529 1529 1529 1529 1528 1528 1528 1527 1527 1527 1527 1527 1526 1525 1525 1525 1525 1524 1524 1523 1522 1521 1521 1522 1523 1524 1524 1525 1525 1526 1526 1527 1527 1527 1527 1527 1527 1527 1527 1527
1528 1529 1529 1529 1529 1529 1529 1529 1529 1529 1529 1529 1528 1528 1528 1528 1527 1527 1527 1526 1526 1526 1525 1525 1524 1523 1524 1524 1525 1526 1526 1527 1528 1528 1528 1528 1528 1528 1528 1528 1528 1528 1528
1528 1529 1529 1530 1530 1530 1530 1529 1530 1529 1529 1529 1529 1529 1529 1529 1529 1528 1528 1528 1528 1528 1527 1527 1526 1526 1526 1526 1527 1528 1528 1528 1529 1529 1530 1530 1530 1530 1530 1529 1529 1529 1529
1528 1528 1529 1530 1530 1530 1530 1530 1530 1530 1530 1530 1530 1530 1530 1530 1530 1530 1529 1529 1529 1529 1529 1528 1528 1528 1528 1528 1529 1529 1530 1530 1530 1531 1531 1531 1531 1531 1531 1531 1530 1530 1530
1527 1528 1529 1529 1530 1530 1530 1530 1530 1531 1531 1531 1531 1531 1531 1531 1531 1530 1530 1530 1530 1530 1530 1530 1530 1530 1530 1530 1530 1530 1531 1532 1532 1532 1532 1532 1532 1532 1532 1532 1531 1531 1531
1528 1528 1529 1529 1530 1530 1530 1531 1531 1531 1531 1531 1532 1532 1532 1532 1531 1531 1531 1531 1531 1531 1531 1531 1531 1531 1531 1531 1531 1532 1532 1533 1532 1532 1532 1532 1532 1532 1532 1532 1532 1532 1531
1527 1528 1528 1529 1529 1529 1530 1530 1530 1530 1531 1531 1532 1532 1532 1532 1532 1531 1531 1531 1531 1531 1531 1531 1531 1531 1532 1532 1532 1532 1533 1533 1533 1533 1533 1532 1533 1533 1533 1533 1532 1532 1531
1526 1527 1528 1528 1529 1529 1529 1530 1530 1531 1531 1531 1532 1532 1532 1532 1532 1531 1531 1531 1531 1531 1531 1532 1532 1532 1532 1533 1533 1532 1533 1534 1533 1533 1533 1533 1533 1533 1533 1533 1532 1532 1532
1525 1526 1527 1528 1528 1529 1529 1530 1530 1530 1531 1531 1531 1532 1532 1532 1531 1531 1531 1531 1531 1531 1531 1531 1532 1532 1532 1532 1533 1533 1533 1533 1533 1534 1533 1533 1533 1533 1533 1533 1532 1532 1532
1524 1525 1526 1527 1527 1528 1529 1529 1529 1529 1530 1530 1530 1531 1531 1531 1531 1531 1531 1531 1531 1531 1531 1531 1531 1531 1532 1532 1532 1532 1533 1532 1533 1533 1533 1533 1533 1532 1532 1532 1532 1532 1532
1523 1524 1525 1526 1526 1527 1527 1528 1528 1529 1529 1530 1530 1530 1530 1530 1530 1530 1531 1531 1530 1530 1530 1531 1530 1531 1531 1531 1531 1531 1531 1531 1531 1532 1532 1532 1532 1532 1532 1532 1532 1532 1532
1522 1523 1524 1524 1525 1526 1526 1527 1527 1528 1528 1529 1529 1529 1529 1529 1529 1529 1530 1530 1530 1530 1530 1530 1530 1530 1530 1530 1530 1530 1530 1530 1530 1530 1531 1531 1531 1532 1532 1532 1532 1532 1532